This is the latest recevied weather packets stored in our database for station/object KE8AFF-13. If no packets are shown the sender has not sent any weather packets the latest 10 day(s).
| Time | Temp. | Humidity | Pressure | Rain* | Wind** | Luminosity | Snow |
|---|---|---|---|---|---|---|---|
| 1778250224 | 12.78° C | 66% | 1013.3 hPa | 0 mm | - | 157 W/m² | - |
| 1778249920 | 12.78° C | 66% | 1013.3 hPa | 0 mm | - | 147 W/m² | - |
| 1778249617 | 12.78° C | 66% | 1013.6 hPa | 0 mm | - | 158 W/m² | - |
| 1778249315 | 12.78° C | 66% | 1013.3 hPa | 0 mm | - | 163 W/m² | - |
| 1778249011 | 12.78° C | 67% | 1013.3 hPa | 0 mm | - | 136 W/m² | - |
| 1778248707 | 12.78° C | 67% | 1013.5 hPa | 0 mm | - | 163 W/m² | - |
| 1778248404 | 12.78° C | 67% | 1013.5 hPa | 0 mm | - | 192 W/m² | - |
| 1778248100 | 12.78° C | 68% | 1013.5 hPa | 0 mm | - | 271 W/m² | - |
| 1778247797 | 12.22° C | 68% | 1013.7 hPa | 0 mm | - | 195 W/m² | - |
| 1778247494 | 12.22° C | 69% | 1013.5 hPa | 0 mm | - | 279 W/m² | - |
| 1778247192 | 12.22° C | 69% | 1013.6 hPa | 0 mm | - | 338 W/m² | - |
| 1778246888 | 11.67° C | 71% | 1013.7 hPa | 0 mm | - | 238 W/m² | - |
| 1778246586 | 11.67° C | 72% | 1013.6 hPa | 0 mm | - | 254 W/m² | - |
| 1778246276 | 11.67° C | 73% | 1013.6 hPa | 0 mm | - | 251 W/m² | - |
| 1778245972 | 11.11° C | 72% | 1013.6 hPa | 0 mm | - | 194 W/m² | - |
| 1778245669 | 11.11° C | 73% | 1013.6 hPa | 0 mm | - | 205 W/m² | - |
| 1778245367 | 11.11° C | 73% | 1013.5 hPa | 0 mm | - | 175 W/m² | - |
| 1778245062 | 11.11° C | 73% | 1013.6 hPa | 0 mm | - | 206 W/m² | - |
| 1778244758 | 11.11° C | 72% | 1013.6 hPa | 0 mm | - | 189 W/m² | - |
| 1778244457 | 10.56° C | 72% | 1013.6 hPa | 0 mm | - | 189 W/m² | - |
| 1778244154 | 10.56° C | 72% | 1013.6 hPa | 0 mm | - | 149 W/m² | - |
| 1778243852 | 10.56° C | 72% | 1013.3 hPa | 0 mm | - | 189 W/m² | - |
| 1778243550 | 10.56° C | 72% | 1013.6 hPa | 0 mm | - | 152 W/m² | - |
| 1778243245 | 10.56° C | 72% | 1013.6 hPa | 0 mm | - | 185 W/m² | - |
| 1778242943 | 10.56° C | 72% | 1013.6 hPa | 0 mm | - | 206 W/m² | - |
* Rain latest hour (hover to see other rain measurements)
** Current wind speed in m/s (hover to see current wind gust speed)